Amateur radio
NORAD ID: 26931
Int'l Code: 2001-043C
Perigee: 793.9 km
Apogee: 804.4 km
Inclination: 67.1 °
Period: 100.7 minutes
Semi major axis: 7170 km
Launch date: September 30, 2001
Source: United States (US)
Comments: Built by midshipmen to learn technology and operation; will be part of Amateur Radio Reporting System (APRS)
Two Line Element Set (TLE):
1 26931U 01043C 13144.83069881 .00000172 00000-0 98668-4 0 3349
2 26931 067.0529 319.7172 0007314 283.3946 207.0911 14.29924997608080
Source: AFSPC
NASA's NSSDC Master Catalog entry for PCSAT